Location: Mason
(37.5237°N, 89.2543°W)
Time: 11:20:24
(UTC+00:00)

Daily predictions for brighter satellites

Satellite Brightness Start Highest point End
(mag) Time Altitude Azimuth Time Altitude Azimuth Time Altitude Azimuth
Cosmos 2084 4.4 12:01:59 10° WSW 12:05:57 30° NW 12:09:57 10° NNE
Cosmos 1606 3.9 12:02:57 10° SSE 12:06:37 48° E 12:10:18 10° NNE
Cosmos 1400 Rocket 3.0 12:03:25 10° SSW 12:07:16 47° WNW 12:11:13 10° N
PAYLOAD B 4.5 12:02:43 10° N 12:08:03 47° WNW 12:13:19 10° SW
Cosmos 2016 Rocket 4.1 12:05:06 10° NNW 12:11:13 57° W 12:17:22 10° SSW
SMAP 3.4 12:08:17 10° NNE 12:12:57 73° ESE 12:17:34 10° S
Okean O Rocket 2.0 12:13:35 10° N 12:17:41 40° WNW 12:21:44 10° SW
Meteor 2-20 4.4 12:16:58 10° S 12:23:01 80° W 12:29:07 10° N
